Regional Weather Roundup
Issued by NWS Newport/Morehead, NC

Current Version | Previous Version | Graphics & Text | Print | Product List | Glossary Off
Versions: 1 2 3 4 5 6 7 8 9 10 11 12 13 14 15 16 17 18 19 20 21 22 23 24 25 26 27 28 29 30 31 32 33 34 35 36 37 38 39 40 41 42 43 44 45 46 47 48 49 50

000
ASUS42 KMHX 210014
RWRMHX
WEATHER ROUNDUP FOR EASTERN NORTH CAROLINA
NATIONAL WEATHER SERVICE NEWPORT/MOREHEAD CITY NC
800 PM EDT SUN AUG 20 2017

NOTE: "FAIR" INDICATES FEW OR NO CLOUDS BELOW 12,000 FEET
WITH NO SIGNIFICANT WEATHER AND/OR OBSTRUCTIONS TO VISIBILITY

NCZ015>017-031-032-045>047-102-103-210100-
NORTH COAST

CITY           SKY/WX    TMP DP  RH WIND       PRES   REMARKS
EDENTON        CLOUDY    82  76  81 CALM      30.13R
ELIZABETH CITY CLOUDY    81  75  82 E8        30.13R
KITTY HAWK     PTCLDY    79  73  84 CALM      30.12R
MANTEO         PTCLDY    79  75  89 SE7       30.13R

$$

NCZ045>047-081-094-103-104-210100-
CENTRAL COAST

CITY           SKY/WX    TMP DP  RH WIND       PRES   REMARKS
FRISCO         PTCLDY    80  78  94 E5        30.13R

$$

NCZ095-097-098-100-101-210100-
SOUTHERN COAST

CITY           SKY/WX    TMP DP  RH WIND       PRES   REMARKS
BEAUFORT       PTCLDY    81  77  88 SE3       30.12R
CEDAR ISLAND   NOT AVBL
JACKSONVILLE   PTCLDY    81  78  91 CALM      30.11R
PINEY ISLAND     N/A    N/A N/A N/A SE5       30.13R
WILMINGTON     CLOUDY    82  75  79 SE5       30.12R


$$

NCZ011>013-027>030-043-044-078>080-089-090>093-098-210100-
COASTAL PLAIN

CITY           SKY/WX    TMP DP  RH WIND       PRES   REMARKS
AHOSKIE          N/A     79  75  88 CALM      30.11R
CLINTON        CLOUDY    85  74  69 CALM      30.11R
ELIZABETHTOWN  NOT AVBL
GOLDSBORO      PTCLDY    86  73  65 SE3       30.10R
GREENVILLE     CLOUDY    86  72  62 SE3       30.12R
HAVELOCK       CLEAR     81  75  82 SE5       30.13R
KENANSVILLE    CLOUDY    82  75  78 CALM      30.12R
KINSTON        NOT AVBL
NEW BERN       PTCLDY    80  76  87 SE3       30.13R
RICHLANDS      PTCLDY    81  76  84 CALM      30.13R
ROCKY MOUNT    CLEAR     80  75  84 CALM      30.12R
WASHINGTON     PTCLDY    84  75  73 CALM      30.11R
WHITEVILLE     CLEAR     81  73  77 CALM      30.11R

$$

AMZ130-135-150-152-154-156-158-170-250-252-270-ANZ085-086-088-633-658-670-210100-
MARINE OBSERVATIONS

STATION/POSITION TIME  TEMP    WIND        PRES    WAVE   SWELL
                       AIR SEA DIR/SP/G            HT/PER HT/PER
                 (UTC) (F)     (DEG/KT/KT) (MB)    (FT/S) (FT/S)
CHESAPEAKE LIGHT NOT AVBL
64 E VA BEACH    2250   79 81   80/  8/  8 1020.2    2/ 8   2/ 8
DUCK             2342   80 78   90/  9/ 10 1019.9
2 E DUCK         0000      80                N/A     2/ 9
OREGON INLET     2342   79 85   70/  4/  5 1020.1
13E OREGON INLT  2348      81                N/A     2/ 8   2/ 8
HATTERAS CG      2342   80 81  100/  5/  7 1020.0
DIAMOND BUOY     2350   83 85   80/  6/  8 1019.9    2/ 8   2/ 8
CAPE LOOKOUT     2300   82     100/  6/  7 1019.0
BEAUFORT LAB     2342   82 81  150/  5/  6 1019.3
30 SE NEW RVR IN 2308   82 84  120/  6/  8 1019.2
30 SE NEW RVR IN 2343      84                N/A     3/ 8
27 SE WRIGHTSVLE 2308   83 84  120/  8/ 10 1019.1
5 SE WRIGHTSVLE  2308   83 85  130/  8/ 12 1018.9
225 S CAPE HAT   2250   83 85  160/  8/  8 1020.1    3/ 8   3/ 8
41 SE CHARLESTON 2350   85 86  170/ 10/ 12 1018.2    3/ 8   3/ 8

$$



USA.gov is the U.S. government's official web portal to all federal, state and local government web resources and services.